EZY1401 LSGG-LFMN

Flight info

Callsign EZY1401
Flight time 0h 47m
Altitude 23000
Route MEDAM DCT VEVAR
Aircraft A320/M-SDE3FGHIRWY/LB1

Departure

Time 2026-05-01 10:24
Airport Geneva International Airport (LSGG)

Arrival

Time 2026-05-01 11:12
Airport Nice-Côte d'Azur Airport (LFMN)
Time Latitude Longitude Altitude Speed Heading
2026-05-01 09:23 46.23130 6.10702 1393 ft 0 kts 135°
2026-05-01 10:12 46.23162 6.10674 1398 ft 4 kts 183°
2026-05-01 10:13 46.23184 6.10685 1400 ft 2 kts 225°
2026-05-01 10:13 46.23197 6.10704 1401 ft 0 kts 225°
2026-05-01 10:16 46.23196 6.10703 1403 ft 1 kts 226°
2026-05-01 10:16 46.23122 6.10593 1399 ft 9 kts 226°
2026-05-01 10:17 46.23084 6.10536 1401 ft 7 kts 226°
2026-05-01 10:17 46.23013 6.10433 1398 ft 7 kts 228°
2026-05-01 10:17 46.22983 6.10388 1398 ft 6 kts 224°
2026-05-01 10:18 46.22971 6.10281 1401 ft 10 kts 311°
2026-05-01 10:18 46.23009 6.10224 1396 ft 6 kts 314°
2026-05-01 10:18 46.23041 6.10173 1399 ft 11 kts 300°
2026-05-01 10:19 46.23021 6.10084 1402 ft 9 kts 227°
2026-05-01 10:19 46.22979 6.10018 1399 ft 11 kts 228°
2026-05-01 10:19 46.22915 6.09922 1404 ft 13 kts 226°
2026-05-01 10:20 46.22762 6.09696 1403 ft 17 kts 225°
2026-05-01 10:20 46.22678 6.09567 1400 ft 18 kts 223°
2026-05-01 10:20 46.22587 6.09437 1401 ft 16 kts 230°
2026-05-01 10:20 46.22551 6.09343 1402 ft 7 kts 252°
2026-05-01 10:21 46.22549 6.09271 1414 ft 4 kts 274°
2026-05-01 10:21 46.22549 6.09267 1414 ft 0 kts 274°
2026-05-01 10:22 46.22552 6.09228 1410 ft 7 kts 277°
2026-05-01 10:23 46.22592 6.09165 1418 ft 10 kts 343°
2026-05-01 10:23 46.22711 6.09290 1417 ft 9 kts 45°
2026-05-01 10:23 46.22792 6.09402 1418 ft 38 kts 42°
2026-05-01 10:24 46.23837 6.10945 1383 ft 164 kts 46°
2026-05-01 10:24 46.25439 6.13359 2852 ft 167 kts 45°
2026-05-01 10:25 46.27290 6.16022 3858 ft 208 kts 45°
2026-05-01 10:25 46.29582 6.19365 4739 ft 259 kts 45°
2026-05-01 10:26 46.30867 6.21257 5558 ft 268 kts 45°
2026-05-01 10:26 46.32183 6.23200 6479 ft 272 kts 46°
2026-05-01 10:26 46.34873 6.27173 8303 ft 280 kts 46°
2026-05-01 10:27 46.36171 6.32350 10049 ft 289 kts 99°
2026-05-01 10:27 46.34061 6.37191 11722 ft 296 kts 147°
2026-05-01 10:28 46.32136 6.38255 12498 ft 304 kts 171°
2026-05-01 10:28 46.27809 6.36554 12993 ft 353 kts 206°
2026-05-01 10:28 46.25549 6.34912 13202 ft 374 kts 206°
2026-05-01 10:29 46.20756 6.31618 14372 ft 387 kts 197°
2026-05-01 10:29 46.19026 6.30969 14781 ft 389 kts 189°
2026-05-01 10:30 46.13595 6.30452 16038 ft 395 kts 181°
2026-05-01 10:30 46.08054 6.30153 17239 ft 402 kts 181°
2026-05-01 10:31 46.02410 6.29818 18424 ft 409 kts 181°
2026-05-01 10:31 45.96668 6.29474 19365 ft 417 kts 180°
2026-05-01 10:32 45.90870 6.29809 20372 ft 419 kts 167°
2026-05-01 10:32 45.88078 6.30996 20882 ft 420 kts 156°
2026-05-01 10:32 45.83075 6.35318 21814 ft 423 kts 142°
2026-05-01 10:33 45.78318 6.40386 22715 ft 429 kts 142°
2026-05-01 10:33 45.73482 6.45509 23272 ft 437 kts 142°
2026-05-01 10:34 45.71006 6.48123 23284 ft 449 kts 142°
2026-05-01 10:34 45.68466 6.50798 23289 ft 457 kts 142°
2026-05-01 10:34 45.65900 6.53496 23280 ft 459 kts 142°
2026-05-01 10:35 45.60747 6.58917 23283 ft 460 kts 142°
2026-05-01 10:35 45.58169 6.61628 23286 ft 461 kts 142°
2026-05-01 10:35 45.55591 6.64341 23286 ft 461 kts 142°
2026-05-01 10:35 45.53010 6.67057 23291 ft 461 kts 142°
2026-05-01 10:36 45.47836 6.72480 23298 ft 462 kts 142°
2026-05-01 10:36 45.45240 6.75185 23297 ft 462 kts 143°
2026-05-01 10:36 45.42634 6.77859 23296 ft 462 kts 143°
2026-05-01 10:37 45.40007 6.80504 23295 ft 462 kts 143°
2026-05-01 10:37 45.34766 6.85711 23298 ft 463 kts 144°
2026-05-01 10:37 45.32091 6.88363 23303 ft 463 kts 144°
2026-05-01 10:38 45.29452 6.90876 23312 ft 464 kts 148°
2026-05-01 10:38 45.26557 6.92901 23317 ft 465 kts 157°
2026-05-01 10:38 45.23465 6.94273 23322 ft 466 kts 166°
2026-05-01 10:38 45.20257 6.94968 23322 ft 467 kts 173°
2026-05-01 10:39 45.17023 6.95463 23330 ft 468 kts 173°
2026-05-01 10:39 45.13788 6.95968 23328 ft 468 kts 173°
2026-05-01 10:39 45.10548 6.96479 23329 ft 468 kts 173°
2026-05-01 10:39 45.07306 6.96990 23329 ft 469 kts 173°
2026-05-01 10:40 45.04068 6.97500 23329 ft 469 kts 173°
2026-05-01 10:40 45.00826 6.98008 23332 ft 470 kts 173°
2026-05-01 10:40 44.97571 6.98518 23329 ft 470 kts 173°
2026-05-01 10:40 44.94315 6.99029 23332 ft 470 kts 173°
2026-05-01 10:41 44.91058 6.99542 23335 ft 471 kts 173°
2026-05-01 10:41 44.87803 7.00049 23333 ft 471 kts 173°
2026-05-01 10:41 44.81283 7.01058 23335 ft 471 kts 174°
2026-05-01 10:42 44.78031 7.01607 23340 ft 472 kts 172°
2026-05-01 10:42 44.74778 7.02296 23337 ft 472 kts 171°
2026-05-01 10:42 44.71547 7.03084 23340 ft 472 kts 170°
2026-05-01 10:42 44.68312 7.03924 23339 ft 472 kts 169°
2026-05-01 10:43 44.65077 7.04771 23341 ft 473 kts 169°
2026-05-01 10:43 44.61843 7.05599 23336 ft 473 kts 170°
2026-05-01 10:43 44.58601 7.06393 23338 ft 473 kts 171°
2026-05-01 10:43 44.55356 7.07159 23335 ft 473 kts 171°
2026-05-01 10:44 44.52146 7.07905 23334 ft 474 kts 171°
2026-05-01 10:44 44.48854 7.08667 23331 ft 474 kts 171°
2026-05-01 10:44 44.45642 7.09414 23331 ft 474 kts 171°
2026-05-01 10:44 44.42391 7.10178 23334 ft 474 kts 171°
2026-05-01 10:45 44.39135 7.10945 23344 ft 474 kts 171°
2026-05-01 10:45 44.35879 7.11711 23338 ft 474 kts 171°
2026-05-01 10:45 44.32619 7.12475 23339 ft 475 kts 171°
2026-05-01 10:45 44.29359 7.13243 23335 ft 475 kts 171°
2026-05-01 10:46 44.29069 7.13311 23335 ft 475 kts 171°
2026-05-01 10:46 44.25782 7.14060 23331 ft 474 kts 171°
2026-05-01 10:46 44.22552 7.14890 23326 ft 464 kts 167°
2026-05-01 10:46 44.19523 7.16234 23329 ft 454 kts 159°
2026-05-01 10:47 44.16623 7.17956 23330 ft 452 kts 158°
2026-05-01 10:47 44.13736 7.19669 23331 ft 451 kts 158°
2026-05-01 10:47 44.10842 7.21364 23324 ft 451 kts 158°
2026-05-01 10:47 44.07948 7.23049 23331 ft 451 kts 158°
2026-05-01 10:48 44.05054 7.24731 23327 ft 451 kts 158°
2026-05-01 10:48 44.02155 7.26416 23330 ft 451 kts 158°
2026-05-01 10:48 43.99296 7.28083 23333 ft 451 kts 158°
2026-05-01 10:48 43.96404 7.29772 23266 ft 451 kts 158°
2026-05-01 10:49 43.93501 7.31465 21938 ft 453 kts 158°
2026-05-01 10:49 43.90584 7.33164 20253 ft 455 kts 157°
2026-05-01 10:49 43.87680 7.34857 18903 ft 450 kts 157°
2026-05-01 10:49 43.84829 7.36567 17531 ft 442 kts 153°
2026-05-01 10:50 43.82206 7.38685 16225 ft 434 kts 145°
2026-05-01 10:50 43.79839 7.41221 14948 ft 426 kts 140°
2026-05-01 10:50 43.77555 7.43784 13653 ft 420 kts 140°
2026-05-01 10:50 43.75299 7.46308 12326 ft 413 kts 141°
2026-05-01 10:51 43.73083 7.48783 11078 ft 405 kts 141°
2026-05-01 10:51 43.70946 7.51272 9971 ft 402 kts 135°
2026-05-01 10:51 43.69118 7.54091 9695 ft 384 kts 127°
2026-05-01 10:51 43.67656 7.57056 9562 ft 361 kts 119°
2026-05-01 10:52 43.66570 7.60003 9415 ft 329 kts 111°
2026-05-01 10:52 43.65799 7.62835 9289 ft 302 kts 107°
2026-05-01 10:52 43.65115 7.65498 9169 ft 290 kts 107°
2026-05-01 10:52 43.64445 7.68106 9027 ft 287 kts 107°
2026-05-01 10:53 43.63780 7.70693 8907 ft 286 kts 107°
2026-05-01 10:53 43.63116 7.73270 8778 ft 284 kts 107°
2026-05-01 10:53 43.62455 7.75838 8650 ft 283 kts 106°
2026-05-01 10:53 43.61798 7.78391 8527 ft 282 kts 106°
2026-05-01 10:54 43.61141 7.80940 8407 ft 282 kts 106°
2026-05-01 10:54 43.60486 7.83478 8334 ft 279 kts 106°
2026-05-01 10:54 43.59834 7.86000 8334 ft 279 kts 107°
2026-05-01 10:54 43.59179 7.88520 8338 ft 279 kts 107°
2026-05-01 10:55 43.58524 7.91036 8339 ft 279 kts 106°
2026-05-01 10:55 43.57907 7.93565 8336 ft 277 kts 100°
2026-05-01 10:55 43.57431 7.96136 8338 ft 278 kts 107°
2026-05-01 10:55 43.56457 7.98460 8338 ft 284 kts 128°
2026-05-01 10:56 43.54902 8.00170 8345 ft 290 kts 148°
2026-05-01 10:56 43.53017 8.01187 8338 ft 294 kts 163°
2026-05-01 10:56 43.51014 8.01595 8340 ft 296 kts 176°
2026-05-01 10:56 43.48921 8.01414 8342 ft 299 kts 188°
2026-05-01 10:57 43.46921 8.00636 8343 ft 300 kts 201°
2026-05-01 10:57 43.45103 7.99303 8339 ft 300 kts 215°
2026-05-01 10:57 43.43525 7.97438 8340 ft 299 kts 229°
2026-05-01 10:57 43.42299 7.95137 8338 ft 298 kts 243°
2026-05-01 10:58 43.41476 7.92541 8335 ft 296 kts 255°
2026-05-01 10:58 43.41083 7.89781 8337 ft 293 kts 268°
2026-05-01 10:58 43.41130 7.87004 8338 ft 289 kts 281°
2026-05-01 10:58 43.41405 7.84261 8332 ft 290 kts 281°
2026-05-01 10:59 43.41660 7.81513 8332 ft 290 kts 279°
2026-05-01 10:59 43.41831 7.78743 8333 ft 291 kts 276°
2026-05-01 10:59 43.41949 7.75962 8332 ft 292 kts 276°
2026-05-01 10:59 43.42052 7.73176 8335 ft 292 kts 275°
2026-05-01 11:00 43.42154 7.70392 8331 ft 292 kts 276°
2026-05-01 11:00 43.42263 7.67607 8331 ft 291 kts 276°
2026-05-01 11:00 43.42377 7.64815 8332 ft 292 kts 276°
2026-05-01 11:00 43.42493 7.62030 8332 ft 292 kts 276°
2026-05-01 11:01 43.42612 7.59237 8330 ft 292 kts 276°
2026-05-01 11:01 43.42732 7.56457 8329 ft 291 kts 276°
2026-05-01 11:01 43.42854 7.53676 8333 ft 291 kts 276°
2026-05-01 11:01 43.42977 7.50902 8336 ft 291 kts 276°
2026-05-01 11:02 43.43097 7.48123 8336 ft 290 kts 276°
2026-05-01 11:02 43.43216 7.45356 8340 ft 290 kts 276°
2026-05-01 11:02 43.43335 7.42588 8341 ft 290 kts 276°
2026-05-01 11:02 43.43451 7.39821 8343 ft 290 kts 276°
2026-05-01 11:03 43.43567 7.37057 8338 ft 289 kts 276°
2026-05-01 11:03 43.43682 7.34292 8342 ft 289 kts 276°
2026-05-01 11:03 43.43796 7.31535 8341 ft 289 kts 276°
2026-05-01 11:03 43.43909 7.28777 8341 ft 288 kts 276°
2026-05-01 11:04 43.44022 7.26020 8342 ft 289 kts 276°
2026-05-01 11:04 43.44134 7.23269 8343 ft 288 kts 275°
2026-05-01 11:04 43.44242 7.20521 8345 ft 287 kts 276°
2026-05-01 11:04 43.44351 7.17779 8322 ft 288 kts 275°
2026-05-01 11:05 43.44463 7.14995 7761 ft 295 kts 276°
2026-05-01 11:05 43.44577 7.12191 7365 ft 292 kts 275°
2026-05-01 11:05 43.44687 7.09418 6705 ft 290 kts 276°
2026-05-01 11:05 43.44793 7.06679 6290 ft 281 kts 275°
2026-05-01 11:06 43.44893 7.04046 6135 ft 270 kts 275°
2026-05-01 11:06 43.44999 7.01517 6014 ft 258 kts 279°
2026-05-01 11:06 43.45605 6.99334 5899 ft 237 kts 315°
2026-05-01 11:07 43.48135 6.97973 5410 ft 218 kts 15°
2026-05-01 11:07 43.49464 6.98873 4826 ft 221 kts 45°
2026-05-01 11:07 43.50576 7.00379 4291 ft 227 kts 48°
2026-05-01 11:07 43.51693 7.01928 3924 ft 227 kts 48°
2026-05-01 11:08 43.52800 7.03443 3611 ft 219 kts 48°
2026-05-01 11:08 43.53851 7.04876 3321 ft 207 kts 48°
2026-05-01 11:08 43.55851 7.07611 2787 ft 202 kts 49°
2026-05-01 11:09 43.56835 7.08957 2515 ft 198 kts 49°
2026-05-01 11:09 43.57811 7.10296 2255 ft 201 kts 48°
2026-05-01 11:09 43.58807 7.11659 1976 ft 202 kts 48°
2026-05-01 11:10 43.60765 7.14336 1347 ft 188 kts 48°
2026-05-01 11:10 43.61636 7.15530 1082 ft 166 kts 48°
2026-05-01 11:10 43.62427 7.16618 840 ft 157 kts 48°
2026-05-01 11:10 43.63164 7.17626 661 ft 140 kts 47°
2026-05-01 11:11 43.63839 7.18555 446 ft 136 kts 49°
2026-05-01 11:11 43.64494 7.19456 278 ft 132 kts 50°
2026-05-01 11:11 43.65151 7.20330 84 ft 128 kts 58°
2026-05-01 11:11 43.65751 7.21208 27 ft 118 kts 46°
2026-05-01 11:12 43.66135 7.21718 21 ft 33 kts 45°
2026-05-01 11:12 43.66275 7.21904 22 ft 30 kts 40°
2026-05-01 11:12 43.66442 7.22023 21 ft 7 kts 19°
2026-05-01 11:12 43.66464 7.22034 21 ft 7 kts 18°
2026-05-01 11:13 43.66537 7.22040 21 ft 0 kts 338°
2026-05-01 11:13 43.66551 7.22017 21 ft 10 kts 291°
2026-05-01 11:14 43.66525 7.21925 21 ft 10 kts 222°
2026-05-01 11:14 43.66474 7.21861 21 ft 9 kts 224°
2026-05-01 11:14 43.66418 7.21784 21 ft 16 kts 225°
2026-05-01 11:14 43.66328 7.21637 21 ft 22 kts 261°
2026-05-01 11:15 43.66372 7.21499 21 ft 9 kts 259°
2026-05-01 11:15 43.66346 7.21396 21 ft 15 kts 261°
2026-05-01 11:15 43.66333 7.21277 21 ft 6 kts 262°
2026-05-01 11:15 43.66338 7.21265 21 ft 7 kts 307°
2026-05-01 11:16 43.66360 7.21254 21 ft 0 kts 358°
2026-05-01 11:16 43.66377 7.21246 21 ft 5 kts 341°
2026-05-01 11:16 43.66405 7.21234 21 ft 4 kts 345°
2026-05-01 11:16 43.66419 7.21229 21 ft 1 kts 343°
2026-05-01 11:17 43.66422 7.21228 21 ft 0 kts 343°
2026-05-01 11:17 43.66425 7.21227 23 ft 0 kts 343°
2026-05-01 11:17 43.66425 7.21226 23 ft 0 kts 343°
2026-05-01 11:26 43.66425 7.21227 21 ft 0 kts 343°
2026-05-01 11:27 43.66425 7.21226 21 ft 0 kts 343°
2026-05-01 11:27 43.66425 7.21227 21 ft 0 kts 343°
2026-05-01 11:27 43.66425 7.21226 21 ft 0 kts 343°
2026-05-01 11:27 43.66425 7.21227 21 ft 0 kts 343°